When you browse on this site, cookies collect data to enhance your experience and personalize the content and advertising you see.
Visit our Privacy Policy to learn more. By continuing to use the site, you agree to this use of cookies and data.
  • In Hungary
  • List of Countries
  • For 7 days
  • Water Temperature
  • Weather Map
  • News
  • Weather Widgets
  • user-avatar
    Login

    Hourly Weather Bogota

    Today, 22 November, Friday

    Time Temperature Precipitation Wind Pressure Humidity
    00:00 +10°C° 0.1 mm 1 mps 546 mmHg 92%
    01:00 +10°C° 0 mm 1 mps 546 mmHg 92%
    02:00 +10°C° 0 mm 1 mps 545 mmHg 92%
    03:00 +10°C° 0 mm 1 mps 545 mmHg 92%
    04:00 +9°C° 0 mm 1 mps 545 mmHg 92%
    05:00 +9°C° 0 mm 0 mps 546 mmHg 90%
    06:00 +10°C° 0 mm 0 mps 547 mmHg 89%
    07:00 +11°C° 0 mm 0 mps 548 mmHg 88%
    08:00 +14°C° 0.3 mm 1 mps 549 mmHg 81%
    09:00 +16°C° 0.3 mm 1 mps 550 mmHg 75%
    10:00 +19°C° 0.3 mm 1 mps 551 mmHg 69%
    11:00 +19°C° 0.9 mm 1 mps 550 mmHg 74%
    12:00 +18°C° 0.9 mm 1 mps 549 mmHg 78%
    13:00 +17°C° 0.9 mm 2 mps 548 mmHg 83%
    14:00 +18°C° 1 mm 1 mps 548 mmHg 84%
    15:00 +16°C° 1 mm 1 mps 547 mmHg 86%
    16:00 +15°C° 1 mm 1 mps 546 mmHg 87%
    17:00 +14°C° 0.5 mm 1 mps 546 mmHg 89%
    18:00 +13°C° 0.5 mm 1 mps 546 mmHg 91%
    19:00 +10°C° 0.5 mm 0 mps 546 mmHg 92%
    20:00 +10°C° 0.2 mm 0 mps 546 mmHg 92%
    21:00 +10°C° 0.2 mm 0 mps 546 mmHg 92%
    22:00 +9°C° 0.2 mm 0 mps 546 mmHg 92%
    23:00 +9°C° 0 mm 0 mps 546 mmHg 92%

    Tomorrow, 23 November, Saturday

    Time Temperature Precipitation Wind Pressure Humidity
    00:00 +9°C° 0 mm 0 mps 546 mmHg 92%
    01:00 +8°C° 0 mm 0 mps 545 mmHg 92%
    02:00 +9°C° 0 mm 1 mps 545 mmHg 92%
    03:00 +9°C° 0 mm 1 mps 545 mmHg 92%
    04:00 +9°C° 0 mm 1 mps 545 mmHg 91%
    05:00 +10°C° 0 mm 1 mps 546 mmHg 89%
    06:00 +11°C° 0 mm 1 mps 546 mmHg 87%
    07:00 +12°C° 0 mm 1 mps 547 mmHg 85%
    08:00 +14°C° 0 mm 1 mps 549 mmHg 76%
    09:00 +16°C° 0 mm 1 mps 550 mmHg 67%
    10:00 +20°C° 0 mm 1 mps 551 mmHg 57%
    11:00 +19°C° 0.4 mm 1 mps 550 mmHg 63%
    12:00 +18°C° 0.4 mm 2 mps 550 mmHg 69%
    13:00 +17°C° 0.4 mm 2 mps 549 mmHg 75%
    14:00 +17°C° 1.1 mm 2 mps 548 mmHg 81%
    15:00 +16°C° 1.1 mm 1 mps 547 mmHg 86%
    16:00 +15°C° 1.1 mm 1 mps 546 mmHg 91%
    17:00 +14°C° 0.7 mm 1 mps 546 mmHg 92%
    18:00 +12°C° 0.7 mm 0 mps 546 mmHg 94%
    19:00 +11°C° 0.7 mm 0 mps 546 mmHg 95%
    20:00 +11°C° 0.4 mm 0 mps 547 mmHg 94%
    21:00 +11°C° 0.4 mm 0 mps 547 mmHg 94%
    22:00 +11°C° 0.4 mm 0 mps 547 mmHg 93%
    23:00 +11°C° 0.2 mm 0 mps 547 mmHg 93%

    Day after tomorrow, 24 November, Sunday

    Time Temperature Precipitation Wind Pressure Humidity
    00:00 +11°C° 0.2 mm 0 mps 547 mmHg 93%
    01:00 +11°C° 0.2 mm 0 mps 547 mmHg 92%
    02:00 +11°C° 0.1 mm 0 mps 546 mmHg 92%
    03:00 +10°C° 0.1 mm 0 mps 546 mmHg 92%
    04:00 +10°C° 0.1 mm 0 mps 546 mmHg 92%
    05:00 +11°C° 0 mm 0 mps 546 mmHg 91%
    06:00 +11°C° 0 mm 0 mps 547 mmHg 90%
    07:00 +11°C° 0 mm 0 mps 548 mmHg 89%
    08:00 +13°C° 0.1 mm 0 mps 549 mmHg 82%
    09:00 +16°C° 0.1 mm 1 mps 550 mmHg 75%
    10:00 +19°C° 0.1 mm 1 mps 551 mmHg 67%
    11:00 +19°C° 0.5 mm 1 mps 550 mmHg 69%
    12:00 +19°C° 0.5 mm 1 mps 549 mmHg 71%
    13:00 +18°C° 0.5 mm 2 mps 548 mmHg 72%
    14:00 +18°C° 1.1 mm 1 mps 547 mmHg 78%
    15:00 +16°C° 1.1 mm 1 mps 547 mmHg 84%
    16:00 +15°C° 1.1 mm 1 mps 546 mmHg 90%
    17:00 +14°C° 0.8 mm 1 mps 546 mmHg 91%
    18:00 +13°C° 0.8 mm 1 mps 546 mmHg 92%
    19:00 +12°C° 0.8 mm 0 mps 546 mmHg 94%
    20:00 +11°C° 0.3 mm 0 mps 546 mmHg 92%
    21:00 +11°C° 0.3 mm 0 mps 547 mmHg 91%
    22:00 +12°C° 0.3 mm 1 mps 547 mmHg 90%
    23:00 +10°C° 0.1 mm 0 mps 546 mmHg 89%

    25 November, Monday

    Time Temperature Precipitation Wind Pressure Humidity
    00:00 +9°C° 0.1 mm 0 mps 546 mmHg 89%
    01:00 +9°C° 0.1 mm 0 mps 545 mmHg 89%
    02:00 +8°C° 0 mm 0 mps 545 mmHg 88%
    03:00 +8°C° 0 mm 0 mps 544 mmHg 88%
    04:00 +8°C° 0 mm 0 mps 544 mmHg 88%
    05:00 +9°C° 0 mm 0 mps 545 mmHg 87%
    06:00 +10°C° 0 mm 0 mps 546 mmHg 85%
    07:00 +10°C° 0 mm 0 mps 546 mmHg 84%
    08:00 +14°C° 0 mm 1 mps 548 mmHg 77%
    09:00 +16°C° 0 mm 1 mps 549 mmHg 70%
    10:00 +19°C° 0 mm 1 mps 550 mmHg 63%
    11:00 +19°C° 0.2 mm 1 mps 550 mmHg 64%
    12:00 +19°C° 0.2 mm 1 mps 549 mmHg 66%
    13:00 +19°C° 0.2 mm 2 mps 548 mmHg 68%
    14:00 +19°C° 0.7 mm 1 mps 547 mmHg 74%
    15:00 +16°C° 0.7 mm 1 mps 546 mmHg 81%
    16:00 +15°C° 0.7 mm 1 mps 545 mmHg 88%
    17:00 +14°C° 0.3 mm 1 mps 545 mmHg 89%
    18:00 +13°C° 0.3 mm 1 mps 545 mmHg 91%
    19:00 +12°C° 0.3 mm 1 mps 545 mmHg 92%
    20:00 +11°C° 0 mm 1 mps 545 mmHg 91%
    21:00 +11°C° 0 mm 1 mps 545 mmHg 91%
    22:00 +11°C° 0 mm 1 mps 546 mmHg 90%
    23:00 +10°C° 0 mm 1 mps 545 mmHg 90%

    26 November, Tuesday

    Time Temperature Precipitation Wind Pressure Humidity
    00:00 +10°C° 0 mm 1 mps 545 mmHg 90%
    01:00 +10°C° 0 mm 1 mps 545 mmHg 90%
    02:00 +10°C° 0 mm 1 mps 544 mmHg 90%
    03:00 +10°C° 0 mm 1 mps 544 mmHg 91%
    04:00 +10°C° 0 mm 1 mps 544 mmHg 91%
    05:00 +10°C° 0 mm 1 mps 545 mmHg 91%
    06:00 +11°C° 0 mm 1 mps 546 mmHg 90%
    07:00 +12°C° 0 mm 1 mps 547 mmHg 90%
    08:00 +13°C° 0.2 mm 1 mps 548 mmHg 85%
    09:00 +15°C° 0.2 mm 1 mps 549 mmHg 81%
    10:00 +16°C° 0.2 mm 1 mps 550 mmHg 76%
    11:00 +18°C° 0.9 mm 1 mps 549 mmHg 77%
    12:00 +18°C° 0.9 mm 1 mps 549 mmHg 78%
    13:00 +17°C° 0.9 mm 2 mps 548 mmHg 78%
    14:00 +18°C° 0.9 mm 1 mps 548 mmHg 80%
    15:00 +18°C° 0.9 mm 1 mps 547 mmHg 81%
    16:00 +16°C° 0.9 mm 1 mps 546 mmHg 82%
    17:00 +15°C° 0.2 mm 1 mps 546 mmHg 85%
    18:00 +13°C° 0.2 mm 1 mps 546 mmHg 88%
    19:00 +12°C° 0.2 mm 1 mps 545 mmHg 90%
    20:00 +11°C° 0 mm 1 mps 546 mmHg 90%
    21:00 +11°C° 0 mm 1 mps 546 mmHg 89%
    22:00 +11°C° 0 mm 1 mps 546 mmHg 89%
    23:00 +10°C° 0 mm 1 mps 546 mmHg 89%

    27 November, Wednesday

    Time Temperature Precipitation Wind Pressure Humidity
    00:00 +10°C° 0 mm 1 mps 545 mmHg 89%
    01:00 +10°C° 0 mm 1 mps 545 mmHg 89%
    02:00 +10°C° 0 mm 1 mps 545 mmHg 89%
    03:00 +9°C° 0 mm 1 mps 545 mmHg 89%
    04:00 +9°C° 0 mm 1 mps 544 mmHg 90%
    05:00 +10°C° 0 mm 1 mps 545 mmHg 89%
    06:00 +11°C° 0 mm 1 mps 546 mmHg 88%
    07:00 +12°C° 0 mm 1 mps 547 mmHg 87%
    08:00 +14°C° 0 mm 1 mps 548 mmHg 77%
    09:00 +16°C° 0 mm 1 mps 549 mmHg 68%
    10:00 +19°C° 0 mm 1 mps 551 mmHg 58%
    11:00 +19°C° 0.5 mm 1 mps 550 mmHg 62%
    12:00 +18°C° 0.5 mm 2 mps 549 mmHg 66%
    13:00 +18°C° 0.5 mm 2 mps 549 mmHg 69%
    14:00 +18°C° 0.8 mm 2 mps 548 mmHg 72%
    15:00 +18°C° 0.8 mm 1 mps 547 mmHg 75%
    16:00 +18°C° 0.8 mm 1 mps 547 mmHg 78%
    17:00 +15°C° 0.4 mm 1 mps 546 mmHg 82%
    18:00 +13°C° 0.4 mm 1 mps 546 mmHg 87%
    19:00 +12°C° 0.4 mm 1 mps 546 mmHg 91%
    20:00 +11°C° 0 mm 1 mps 546 mmHg 91%
    21:00 +11°C° 0 mm 1 mps 546 mmHg 91%
    22:00 +11°C° 0 mm 1 mps 546 mmHg 91%
    23:00 +10°C° 0 mm 1 mps 546 mmHg 90%
    Show more